SCP
0 0 0 0 0 0 0 0 0 0 0 0 0 0 0 0 0 0 0 0 0 0 0 0 0 0 0 0 0 0 0 0 0 0 0 0 0 0
0 0 0 0 0 0 0 0 0 0 0 0 0 0 0 0 0 0 0 0 0 0 0 0 0 0 0 0 0 0 0 0 0 0 0 0 0 0
0 0 0 0 0 0 0 0 0 0 0 0 0 0 0 0 0 0 0 0 0 0 0 0 0 0 0 0 0 0 0 0 0 0 0 0 0 0
0 0 0 0 0 0 0 0 0 0 0 0 0 0 0 0 0 0 0 0 0 0 0 0 0 0 0 0 0 0 0 0 0 0 0 0 0 0
0 0 0 0 0 0 0 0 0 0 0 0 0 0 0 0 0 0 0 0 0 0 0 0 0 0 0 0 0 0 0 0 0 0 0 0 0 0
0 0 0 0 0 0 0 0 0 0 0 0 0 0 0 0 0 0 0 0 0 0 0 0 0 0 0 0 0 0 0 0 0 0 0 0 0 0
0 0 0 0 0 0 0 0 0 0 0 0 0 0 0 0 0 0 0 0 0 0 0 0 0 0 0 0 0 0 0 0 0 0 0 0 0 0
0 0 0 0 0 0 0 0 0 0 0 0 0 0 0 0 0 0 0 0 0 0 0 0 0 0 0 0 0 0 0 0 0 0 0 0 0 0
0 0 0 0 0 0 0 0 0 0 0 0 0 0 0 0 0 0 0 0 0 0 0 0 0 0 0 0 0 0 0 0 0 0 0 0 0 0
0 0 0 0 0 0 0 0 0 0 0 0 0 0 0 0 0 0 0 0 0 0 0 0 0 0 0 0 0 0 0 0 0 0 0 0 0 0
0 0 0 0 0 0 0 0 0 0 0 0 0 0 0 0 0 0 0 0 0 0 0 0 0 0 0 0 0 0 0 0 0 0 0 0 0 0
0 0 0 0 0 0 0 0 0 0 0 0 0 0 0 0 0 0 0 0 0 0 0 0 0 0 0 0 0 0 0 0 0 0 0 0 0 0
0 0 0 0 0 0 0 0 0 0 0 0 0 0 0 0 0 0 0 0 0 0 0 0 0 0 0 0 0 0 0 0 0 0 0 0 0 0
0 0 0 0 0 0 0 0 0 0 0 0 0 0 0 0 0 0 0 0 0 0 0 0 0 0 0 0 0 0 0 0 0 0 0 0 0 0
0 0 0 0 0 0 0 0 0 0 0 0 0 0 0 0 0 0 0 0 0 0 0 0 0 0 0 0 0 0 0 0 0 0 0 0 0 0
0 0 0 0 0 0 0 0 0 0 0 0 0 0 0 0 0 0 0 0 0 0 0 0 0 0 0 0 0 0 0 0 0 0 0 0 0 0
0 0 0 0 0 0 0 0 0 0 0 0 0 0 0 0 0 0 0 0 0 0 0 0 0 0 0 0 0 0 0 0 0 0 0 0 0 0
0 0 0 0 0 0 0 0 0 0 0 0 0 0 0 0 0 0 0 0 0 0 0 0 0 0 0 0 0 0 0 0 0 0 0 0 0 0
0 0 0 0 0 0 0 0 0 0 0 0 0 0 0 0 0 0 0 0 0 0 0 0 0 0 0 0 0 0 0 0 0 0 0 0 0 0
0 0 0 0 0 0 0 0 0 0 0 0 0 0 0 0 0 0 0 0 0 0 0 0 0 0 0 0 0 0 0 0 0 0 0 0 0 0
0 0 0 0 0 0 0 0 0 0 0 0 0 0 0 0 0 0 0 0 0 0 0 0 0 0 0 0 0 0 0 0 0 0 0 0 0 0
0 0 0 0 0 0 0 0 0 0 0 0 0 0 0 0 0 0 0 0 0 0 0 0 0 0 0 0 0 0 0 0 0 0 0 0 0 0
0 0 0 0 0 0 0 0 0 0 0 0 0 0 0 0 0 0 0 0 0 0 0 0 0 0 0 0 0 0 0 0 0 0 0 0 0 0
Wind_Speed_500mb
65 63 62 56 59 55 51 49 46 38 38 26 31 34 26 33 43 52 56 60 52 51 50 48 44 41 43 47 43 48 53 48 50 48 45 44 42 41
62 64 67 64 65 58 59 54 55 55 52 40 34 33 41 40 37 40 51 56 60 63 67 54 50 49 51 55 49 49 53 54 52 51 49 47 44 42
61 62 61 64 63 61 64 66 65 61 64 60 45 40 49 47 45 41 39 48 56 64 64 61 68 54 59 57 53 55 55 55 55 55 51 49 44 45
67 65 63 65 70 67 68 69 64 69 66 70 55 60 55 53 49 47 43 41 44 51 59 63 64 59 64 56 55 59 59 57 57 57 51 49 46 46
66 67 63 63 66 67 64 69 71 70 70 70 61 48 59 55 54 54 49 44 42 42 47 57 61 61 61 61 59 61 59 61 59 55 54 48 49 44
65 64 62 66 65 71 66 72 70 67 68 68 70 56 66 60 55 56 54 51 47 44 44 47 50 55 57 59 59 60 60 59 58 55 51 51 50 41
65 68 70 65 62 67 60 62 62 65 65 65 69 69 71 63 59 56 56 53 50 47 45 46 49 51 54 57 61 60 60 58 56 54 53 49 47 40
68 70 70 61 63 57 58 55 55 58 63 67 67 66 60 54 51 53 52 53 54 50 51 51 49 52 54 56 56 57 58 57 53 54 52 50 44 38
64 69 66 66 58 55 52 47 49 57 59 59 60 56 49 47 52 52 52 55 56 54 51 47 49 52 47 49 53 61 58 54 53 53 50 47 37 39
61 59 56 53 56 53 48 48 53 61 62 58 49 41 39 43 48 49 50 52 57 56 56 57 55 55 56 51 55 58 59 58 56 53 48 41 39 41
47 45 43 45 45 46 49 53 53 55 51 45 46 51 51 52 50 50 51 52 57 60 57 56 55 49 47 49 55 55 58 59 52 46 43 41 39 41
40 38 37 36 35 36 44 47 49 47 43 51 59 62 55 50 51 50 45 54 57 59 54 52 47 48 44 47 45 44 45 46 44 42 39 38 38 39
38 37 36 34 34 35 39 42 45 44 45 45 47 52 45 46 42 43 44 41 40 44 43 42 43 42 44 36 27 37 41 38 39 38 33 35 37 38
36 35 36 32 31 35 39 43 47 47 42 45 45 50 53 54 53 50 45 46 43 44 41 37 38 36 38 38 32 31 31 34 34 29 32 34 35 36
34 33 32 35 32 29 24 26 28 28 29 32 32 34 35 38 40 43 39 39 39 39 39 36 32 31 32 35 34 31 30 28 28 30 32 34 32 35
25 24 21 21 25 26 26 28 30 30 30 32 34 36 36 35 37 36 35 35 35 34 33 32 34 34 33 33 31 29 27 23 24 28 29 32 33 34
19 19 18 17 18 20 18 19 18 20 20 20 23 26 28 30 32 32 30 30 31 31 32 34 35 35 35 34 32 31 30 31 30 30 29 30 31 30
16 15 15 16 15 15 18 18 22 19 20 18 18 21 20 20 24 27 29 30 32 32 32 34 35 36 37 35 34 32 32 31 30 29 29 31 31 25
12 14 14 13 11 12 13 14 16 20 21 20 20 18 19 20 24 28 27 30 34 35 35 37 38 39 39 38 31 32 33 31 30 29 30 32 28 22
4 1 3 5 8 12 14 16 18 19 22 23 24 23 22 24 27 27 30 33 36 38 39 41 42 43 41 37 33 31 31 30 29 31 30 28 26 26
7 12 13 12 10 12 14 13 14 17 20 23 24 25 26 26 28 30 33 35 39 42 43 44 45 45 41 38 36 35 32 31 31 32 29 27 27 26
8 6 8 14 18 18 19 21 22 23 22 22 23 28 30 32 33 34 33 36 44 46 46 47 45 46 44 40 39 36 34 33 32 30 28 26 25 20
11 10 9 10 12 15 19 23 26 28 28 28 28 30 32 35 37 39 40 39 44 47 49 49 47 47 46 44 39 37 35 32 31 29 27 27 26 25
Wind_Direction_500mb
230 233 236 238 237 239 240 239 240 241 245 251 256 257 256 258 263 260 255 263 249 257 258 259 255 250 261 268 276 280 279 286 290 294 295 296 297 300
231 234 235 238 240 239 243 244 243 246 249 247 254 254 255 261 268 262 257 252 258 255 257 262 261 257 259 266 271 275 274 279 281 286 289 291 292 299
235 233 235 240 243 246 246 248 244 243 249 252 249 249 264 261 259 261 263 259 251 251 251 261 246 258 264 265 267 271 276 274 275 281 284 289 288 294
230 236 239 243 243 246 248 247 249 247 246 254 249 259 262 260 257 258 261 263 262 252 251 255 258 255 266 262 265 267 272 271 273 276 279 285 283 286
239 246 245 249 252 254 257 256 250 247 246 246 250 247 257 255 255 255 258 263 266 266 254 248 249 254 258 259 262 266 268 268 272 273 280 279 281 279
233 241 245 245 250 256 259 254 255 245 247 245 245 242 255 254 252 253 255 260 266 263 257 253 254 256 258 259 261 263 265 267 268 272 279 277 278 277
245 245 248 251 250 257 254 255 252 240 237 239 242 244 250 254 254 257 256 263 264 258 256 254 254 258 258 258 257 260 263 264 266 273 276 278 275 280
241 245 247 246 245 248 247 244 234 232 233 236 240 241 247 256 256 258 258 256 260 256 254 257 257 259 260 260 264 266 264 264 267 270 275 276 275 285
241 241 239 243 241 235 232 227 230 228 232 236 238 239 251 254 251 255 254 255 258 260 261 259 262 259 257 260 269 263 260 261 268 269 272 274 278 282
234 236 237 236 232 227 228 225 231 227 226 228 238 240 246 257 260 254 255 258 259 257 257 258 260 255 258 250 258 257 258 259 261 266 271 270 275 280
223 223 224 225 225 226 227 233 230 229 225 230 246 255 255 251 250 254 253 256 257 257 254 254 259 259 261 259 255 251 253 258 258 263 262 270 274 278
207 209 212 216 215 217 221 221 226 234 234 237 244 246 246 248 252 255 260 265 259 260 253 249 254 256 252 256 251 249 252 247 249 252 260 266 269 273
210 211 214 218 213 215 218 226 231 229 228 240 249 248 250 247 243 253 258 261 252 253 258 263 260 246 242 250 243 240 240 235 240 249 253 260 268 276
203 202 207 213 218 226 230 236 236 244 245 249 253 239 243 246 249 258 257 258 255 253 252 256 258 257 249 244 240 232 225 237 243 244 254 263 271 278
192 197 200 198 207 217 218 225 229 229 237 245 245 248 247 244 246 248 248 253 252 249 252 252 247 245 246 241 235 233 237 238 238 244 253 264 269 276
171 181 195 207 210 214 219 224 227 230 236 237 238 240 242 242 244 246 247 249 247 248 245 239 233 237 233 226 231 239 234 228 240 244 252 264 274 281
162 171 187 200 212 213 219 227 229 228 229 236 235 236 235 234 235 238 239 242 244 245 244 240 234 229 227 230 233 234 236 240 246 251 258 269 278 280
183 184 192 196 209 220 226 234 241 251 254 249 243 240 241 245 246 244 243 247 247 246 246 240 231 228 231 233 234 236 239 244 248 253 261 268 273 271
197 206 206 200 206 227 231 244 251 251 252 261 253 237 234 243 252 246 245 247 244 242 238 234 234 234 233 233 238 238 245 248 253 258 263 268 270 268
355 306 224 222 227 226 235 251 259 261 263 265 267 262 255 250 251 252 256 252 249 247 246 242 240 238 233 236 245 248 246 249 255 262 265 267 271 270
319 298 299 294 280 265 255 256 267 264 256 256 257 256 258 256 253 254 258 258 254 251 249 249 246 244 238 238 243 246 248 252 259 264 264 267 269 265
27 358 316 276 266 271 273 274 278 279 272 268 267 266 264 264 263 262 260 260 259 254 252 253 250 244 238 235 238 246 251 254 254 255 259 261 263 265
354 345 330 313 299 277 272 274 275 276 276 273 271 270 271 268 266 264 261 258 258 255 252 250 244 241 236 234 237 243 251 256 258 257 255 255 256 259
Wind_Speed_850mb
65 63 62 56 59 55 51 49 46 38 38 26 31 34 26 33 43 52 56 60 52 51 50 48 44 41 43 47 43 48 53 48 50 48 45 44 42 41
62 64 67 64 65 58 59 54 55 55 52 40 34 33 41 40 37 40 51 56 60 63 67 54 50 49 51 55 49 49 53 54 52 51 49 47 44 42
61 62 61 64 63 61 64 66 65 61 64 60 45 40 49 47 45 41 39 48 56 64 64 61 68 54 59 57 53 55 55 55 55 55 51 49 44 45
67 65 63 65 70 67 68 69 64 69 66 70 55 60 55 53 49 47 43 41 44 51 59 63 64 59 64 56 55 59 59 57 57 57 51 49 46 46
66 67 63 63 66 67 64 69 71 70 70 70 61 48 59 55 54 54 49 44 42 42 47 57 61 61 61 61 59 61 59 61 59 55 54 48 49 44
65 64 62 66 65 71 66 72 70 67 68 68 70 56 66 60 55 56 54 51 47 44 44 47 50 55 57 59 59 60 60 59 58 55 51 51 50 41
65 68 70 65 62 67 60 62 62 65 65 65 69 69 71 63 59 56 56 53 50 47 45 46 49 51 54 57 61 60 60 58 56 54 53 49 47 40
68 70 70 61 63 57 58 55 55 58 63 67 67 66 60 54 51 53 52 53 54 50 51 51 49 52 54 56 56 57 58 57 53 54 52 50 44 38
64 69 66 66 58 55 52 47 49 57 59 59 60 56 49 47 52 52 52 55 56 54 51 47 49 52 47 49 53 61 58 54 53 53 50 47 37 39
61 59 56 53 56 53 48 48 53 61 62 58 49 41 39 43 48 49 50 52 57 56 56 57 55 55 56 51 55 58 59 58 56 53 48 41 39 41
47 45 43 45 45 46 49 53 53 55 51 45 46 51 51 52 50 50 51 52 57 60 57 56 55 49 47 49 55 55 58 59 52 46 43 41 39 41
40 38 37 36 35 36 44 47 49 47 43 51 59 62 55 50 51 50 45 54 57 59 54 52 47 48 44 47 45 44 45 46 44 42 39 38 38 39
38 37 36 34 34 35 39 42 45 44 45 45 47 52 45 46 42 43 44 41 40 44 43 42 43 42 44 36 27 37 41 38 39 38 33 35 37 38
36 35 36 32 31 35 39 43 47 47 42 45 45 50 53 54 53 50 45 46 43 44 41 37 38 36 38 38 32 31 31 34 34 29 32 34 35 36
34 33 32 35 32 29 24 26 28 28 29 32 32 34 35 38 40 43 39 39 39 39 39 36 32 31 32 35 34 31 30 28 28 30 32 34 32 35
25 24 21 21 25 26 26 28 30 30 30 32 34 36 36 35 37 36 35 35 35 34 33 32 34 34 33 33 31 29 27 23 24 28 29 32 33 34
19 19 18 17 18 20 18 19 18 20 20 20 23 26 28 30 32 32 30 30 31 31 32 34 35 35 35 34 32 31 30 31 30 30 29 30 31 30
16 15 15 16 15 15 18 18 22 19 20 18 18 21 20 20 24 27 29 30 32 32 32 34 35 36 37 35 34 32 32 31 30 29 29 31 31 25
12 14 14 13 11 12 13 14 16 20 21 20 20 18 19 20 24 28 27 30 34 35 35 37 38 39 39 38 31 32 33 31 30 29 30 32 28 22
4 1 3 5 8 12 14 16 18 19 22 23 24 23 22 24 27 27 30 33 36 38 39 41 42 43 41 37 33 31 31 30 29 31 30 28 26 26
7 12 13 12 10 12 14 13 14 17 20 23 24 25 26 26 28 30 33 35 39 42 43 44 45 45 41 38 36 35 32 31 31 32 29 27 27 26
8 6 8 14 18 18 19 21 22 23 22 22 23 28 30 32 33 34 33 36 44 46 46 47 45 46 44 40 39 36 34 33 32 30 28 26 25 20
11 10 9 10 12 15 19 23 26 28 28 28 28 30 32 35 37 39 40 39 44 47 49 49 47 47 46 44 39 37 35 32 31 29 27 27 26 25
Wind_Direction_850mb
230 233 236 238 237 239 240 239 240 241 245 251 256 257 256 258 263 260 255 263 249 257 258 259 255 250 261 268 276 280 279 286 290 294 295 296 297 300
231 234 235 238 240 239 243 244 243 246 249 247 254 254 255 261 268 262 257 252 258 255 257 262 261 257 259 266 271 275 274 279 281 286 289 291 292 299
235 233 235 240 243 246 246 248 244 243 249 252 249 249 264 261 259 261 263 259 251 251 251 261 246 258 264 265 267 271 276 274 275 281 284 289 288 294
230 236 239 243 243 246 248 247 249 247 246 254 249 259 262 260 257 258 261 263 262 252 251 255 258 255 266 262 265 267 272 271 273 276 279 285 283 286
239 246 245 249 252 254 257 256 250 247 246 246 250 247 257 255 255 255 258 263 266 266 254 248 249 254 258 259 262 266 268 268 272 273 280 279 281 279
233 241 245 245 250 256 259 254 255 245 247 245 245 242 255 254 252 253 255 260 266 263 257 253 254 256 258 259 261 263 265 267 268 272 279 277 278 277
245 245 248 251 250 257 254 255 252 240 237 239 242 244 250 254 254 257 256 263 264 258 256 254 254 258 258 258 257 260 263 264 266 273 276 278 275 280
241 245 247 246 245 248 247 244 234 232 233 236 240 241 247 256 256 258 258 256 260 256 254 257 257 259 260 260 264 266 264 264 267 270 275 276 275 285
241 241 239 243 241 235 232 227 230 228 232 236 238 239 251 254 251 255 254 255 258 260 261 259 262 259 257 260 269 263 260 261 268 269 272 274 278 282
234 236 237 236 232 227 228 225 231 227 226 228 238 240 246 257 260 254 255 258 259 257 257 258 260 255 258 250 258 257 258 259 261 266 271 270 275 280
223 223 224 225 225 226 227 233 230 229 225 230 246 255 255 251 250 254 253 256 257 257 254 254 259 259 261 259 255 251 253 258 258 263 262 270 274 278
207 209 212 216 215 217 221 221 226 234 234 237 244 246 246 248 252 255 260 265 259 260 253 249 254 256 252 256 251 249 252 247 249 252 260 266 269 273
210 211 214 218 213 215 218 226 231 229 228 240 249 248 250 247 243 253 258 261 252 253 258 263 260 246 242 250 243 240 240 235 240 249 253 260 268 276
203 202 207 213 218 226 230 236 236 244 245 249 253 239 243 246 249 258 257 258 255 253 252 256 258 257 249 244 240 232 225 237 243 244 254 263 271 278
192 197 200 198 207 217 218 225 229 229 237 245 245 248 247 244 246 248 248 253 252 249 252 252 247 245 246 241 235 233 237 238 238 244 253 264 269 276
171 181 195 207 210 214 219 224 227 230 236 237 238 240 242 242 244 246 247 249 247 248 245 239 233 237 233 226 231 239 234 228 240 244 252 264 274 281
162 171 187 200 212 213 219 227 229 228 229 236 235 236 235 234 235 238 239 242 244 245 244 240 234 229 227 230 233 234 236 240 246 251 258 269 278 280
183 184 192 196 209 220 226 234 241 251 254 249 243 240 241 245 246 244 243 247 247 246 246 240 231 228 231 233 234 236 239 244 248 253 261 268 273 271
197 206 206 200 206 227 231 244 251 251 252 261 253 237 234 243 252 246 245 247 244 242 238 234 234 234 233 233 238 238 245 248 253 258 263 268 270 268
355 306 224 222 227 226 235 251 259 261 263 265 267 262 255 250 251 252 256 252 249 247 246 242 240 238 233 236 245 248 246 249 255 262 265 267 271 270
319 298 299 294 280 265 255 256 267 264 256 256 257 256 258 256 253 254 258 258 254 251 249 249 246 244 238 238 243 246 248 252 259 264 264 267 269 265
27 358 316 276 266 271 273 274 278 279 272 268 267 266 264 264 263 262 260 260 259 254 252 253 250 244 238 235 238 246 251 254 254 255 259 261 263 265
354 345 330 313 299 277 272 274 275 276 276 273 271 270 271 268 266 264 261 258 258 255 252 250 244 241 236 234 237 243 251 256 258 257 255 255 256 259